Time,TemperatureF,DewpointF,PressureIn,WindDirection,WindDirectionDegrees,WindSpeedMPH,WindSpeedGustMPH,Humidity,HourlyPrecipIn,Conditions,Clouds,dailyrainin,SoftwareType,DateUTC
2013-08-27 00:05:00,80.1,73.8,0.00,North,0,0.0,0.0,77,0.00,,,-99.99,Homeseer,2013-08-27 04:05:00,
2013-08-27 00:15:00,80.2,74.5,0.00,ESE,112,0.0,0.0,79,0.00,,,-99.99,Homeseer,2013-08-27 04:15:00,
2013-08-27 00:25:00,80.4,73.8,0.00,South,180,0.0,0.0,76,0.00,,,-99.99,Homeseer,2013-08-27 04:25:00,
2013-08-27 00:35:00,80.4,73.2,0.00,WSW,247,0.0,0.0,74,0.00,,,-99.99,Homeseer,2013-08-27 04:35:00,
2013-08-27 00:45:00,80.4,73.2,0.00,NW,315,0.0,0.0,74,0.00,,,-99.99,Homeseer,2013-08-27 04:45:00,
2013-08-27 00:55:00,79.5,73.9,0.00,North,0,1.1,0.0,79,0.00,,,-99.99,Homeseer,2013-08-27 04:55:00,
2013-08-27 01:05:00,79.9,74.0,0.00,North,0,0.0,0.0,78,0.00,,,-99.99,Homeseer,2013-08-27 05:05:00,
2013-08-27 01:15:00,79.9,73.4,0.00,North,0,0.0,0.0,76,0.00,,,-99.99,Homeseer,2013-08-27 05:15:00,
2013-08-27 01:25:00,79.5,73.6,0.00,North,0,0.0,0.0,78,0.00,,,-99.99,Homeseer,2013-08-27 05:25:00,
2013-08-27 01:35:00,79.3,74.6,0.00,North,0,0.0,0.0,82,0.00,,,-99.99,Homeseer,2013-08-27 05:35:00,
2013-08-27 01:45:00,79.3,74.3,0.00,North,0,0.0,0.0,81,0.00,,,-99.99,Homeseer,2013-08-27 05:45:00,
2013-08-27 01:55:00,79.3,74.3,0.00,North,0,0.0,0.0,81,0.00,,,-99.99,Homeseer,2013-08-27 05:55:00,
2013-08-27 02:05:00,79.2,74.5,0.00,NNE,22,0.0,0.0,82,0.00,,,-99.99,Homeseer,2013-08-27 06:05:00,
2013-08-27 02:15:00,79.2,75.0,0.00,NW,315,0.0,0.0,84,0.00,,,-99.99,Homeseer,2013-08-27 06:15:00,
2013-08-27 02:25:00,79.0,74.5,0.00,North,0,0.0,0.0,83,0.00,,,-99.99,Homeseer,2013-08-27 06:25:00,
2013-08-27 02:36:00,79.0,75.1,0.00,WNW,297,0.0,0.0,85,0.00,,,-99.99,Homeseer,2013-08-27 06:36:00,
2013-08-27 02:46:00,78.8,75.2,0.00,ENE,67,0.0,0.0,86,0.00,,,-99.99,Homeseer,2013-08-27 06:46:00,
2013-08-27 02:56:00,78.6,74.7,0.00,NW,315,0.0,0.0,85,0.00,,,-99.99,Homeseer,2013-08-27 06:56:00,
2013-08-27 03:06:00,79.0,74.8,0.00,WNW,297,0.0,0.0,84,0.00,,,-99.99,Homeseer,2013-08-27 07:06:00,
2013-08-27 03:16:00,79.2,74.2,0.00,WNW,297,0.0,0.0,81,0.00,,,-99.99,Homeseer,2013-08-27 07:16:00,
2013-08-27 03:26:00,79.0,74.5,0.00,North,0,0.0,0.0,83,0.00,,,-99.99,Homeseer,2013-08-27 07:26:00,
2013-08-27 03:36:00,78.6,75.0,0.00,NNE,22,0.0,1.1,86,0.00,,,-99.99,Homeseer,2013-08-27 07:36:00,
2013-08-27 03:46:00,77.9,74.3,0.00,ENE,67,0.0,0.0,86,0.00,,,-99.99,Homeseer,2013-08-27 07:46:00,
2013-08-27 03:56:00,77.9,74.6,0.00,North,0,0.0,0.0,87,0.00,,,-99.99,Homeseer,2013-08-27 07:56:00,
2013-08-27 04:06:00,77.7,75.2,0.00,North,0,0.0,0.0,90,0.00,,,-99.99,Homeseer,2013-08-27 08:06:00,
2013-08-27 04:16:00,77.7,75.7,0.00,North,0,0.0,0.0,92,0.00,,,-99.99,Homeseer,2013-08-27 08:16:00,
2013-08-27 04:26:00,77.5,75.5,0.00,North,0,0.0,0.0,92,0.00,,,-99.99,Homeseer,2013-08-27 08:26:00,
2013-08-27 04:36:00,77.7,75.7,0.00,North,0,0.0,0.0,92,0.00,,,-99.99,Homeseer,2013-08-27 08:36:00,
2013-08-27 04:46:00,77.4,75.7,0.00,NNE,22,0.0,0.0,93,0.00,,,-99.99,Homeseer,2013-08-27 08:46:00,
2013-08-27 04:56:00,77.4,75.4,0.00,NNE,22,0.0,0.0,92,0.00,,,-99.99,Homeseer,2013-08-27 08:56:00,
2013-08-27 05:06:00,77.4,75.4,0.00,North,0,0.0,2.5,92,0.00,,,-99.99,Homeseer,2013-08-27 09:06:00,
2013-08-27 05:16:00,77.4,75.4,0.00,North,0,0.0,0.0,92,0.00,,,-99.99,Homeseer,2013-08-27 09:16:00,
2013-08-27 05:26:00,77.2,75.0,0.00,North,0,0.0,0.0,91,0.00,,,-99.99,Homeseer,2013-08-27 09:26:00,
2013-08-27 05:36:00,77.2,75.0,0.00,North,0,0.0,0.0,91,0.00,,,-99.99,Homeseer,2013-08-27 09:36:00,
2013-08-27 05:46:00,77.2,74.7,0.00,North,0,0.0,0.0,90,0.00,,,-99.99,Homeseer,2013-08-27 09:46:00,
2013-08-27 05:56:00,77.2,74.4,0.00,NNE,22,0.0,0.0,89,0.00,,,-99.99,Homeseer,2013-08-27 09:56:00,
2013-08-27 06:06:00,76.8,74.3,0.00,ENE,67,0.0,0.0,90,0.00,,,-99.99,Homeseer,2013-08-27 10:06:00,
2013-08-27 06:16:00,76.8,74.3,0.00,WNW,297,0.0,0.0,90,0.00,,,-99.99,Homeseer,2013-08-27 10:16:00,
2013-08-27 06:26:00,76.8,74.6,0.00,NW,315,0.0,0.0,91,0.00,,,-99.99,Homeseer,2013-08-27 10:26:00,
2013-08-27 06:36:00,76.6,74.6,0.00,North,0,0.0,0.0,92,0.00,,,-99.99,Homeseer,2013-08-27 10:36:00,
2013-08-27 06:46:00,76.5,74.3,0.00,NNE,22,0.0,0.0,91,0.00,,,-99.99,Homeseer,2013-08-27 10:46:00,
2013-08-27 06:56:00,76.3,74.3,0.00,East,90,0.0,0.0,92,0.00,,,-99.99,Homeseer,2013-08-27 10:56:00,
2013-08-27 07:06:00,76.1,74.1,0.00,East,90,0.0,0.0,92,0.00,,,-99.99,Homeseer,2013-08-27 11:06:00,
2013-08-27 07:16:00,76.5,74.3,0.00,ENE,67,0.0,0.0,91,0.00,,,-99.99,Homeseer,2013-08-27 11:16:00,
2013-08-27 07:26:00,77.0,74.8,0.00,ENE,67,0.0,0.0,91,0.00,,,-99.99,Homeseer,2013-08-27 11:26:00,
2013-08-27 07:36:00,77.7,75.7,0.00,ESE,112,0.9,0.0,92,0.00,,,-99.99,Homeseer,2013-08-27 11:36:00,
2013-08-27 07:46:00,78.3,75.5,0.00,North,0,0.9,0.0,89,0.00,,,-99.99,Homeseer,2013-08-27 11:46:00,
2013-08-27 07:56:00,78.6,75.8,0.00,North,0,0.0,0.0,89,0.00,,,-99.99,Homeseer,2013-08-27 11:56:00,
2013-08-27 08:06:00,78.4,75.3,0.00,ENE,67,0.0,0.0,88,0.00,,,-99.99,Homeseer,2013-08-27 12:06:00,
2013-08-27 08:16:00,79.2,74.2,0.00,ESE,112,0.0,0.0,81,0.00,,,-99.99,Homeseer,2013-08-27 12:16:00,
2013-08-27 08:26:00,79.5,75.0,0.00,North,0,2.9,3.8,83,0.00,,,-99.99,Homeseer,2013-08-27 12:26:00,
2013-08-27 08:36:00,79.5,72.7,0.00,ENE,67,0.0,1.1,75,0.00,,,-99.99,Homeseer,2013-08-27 12:36:00,
2013-08-27 08:46:00,79.9,72.7,0.00,NW,315,0.0,2.0,74,0.00,,,-99.99,Homeseer,2013-08-27 12:46:00,
2013-08-27 08:56:00,80.1,71.3,0.00,ESE,112,0.0,0.0,69,0.00,,,-99.99,Homeseer,2013-08-27 12:56:00,
2013-08-27 09:06:00,80.4,72.2,0.00,ESE,112,0.0,0.0,71,0.00,,,-99.99,Homeseer,2013-08-27 13:06:00,
2013-08-27 09:16:00,81.0,71.8,0.00,North,0,2.2,2.5,68,0.00,,,-99.99,Homeseer,2013-08-27 13:16:00,
2013-08-27 09:26:00,81.5,71.9,0.00,North,0,1.1,0.0,67,0.00,,,-99.99,Homeseer,2013-08-27 13:26:00,
2013-08-27 09:36:00,82.2,72.6,0.00,North,0,4.0,4.0,67,0.00,,,-99.99,Homeseer,2013-08-27 13:36:00,
2013-08-27 09:46:00,82.2,71.5,0.00,North,0,0.0,0.0,64,0.00,,,-99.99,Homeseer,2013-08-27 13:46:00,
2013-08-27 09:56:00,82.8,71.4,0.00,North,0,0.9,3.6,62,0.00,,,-99.99,Homeseer,2013-08-27 13:56:00,
2013-08-27 10:06:00,83.3,71.8,0.00,ESE,112,1.1,0.0,62,0.00,,,-99.99,Homeseer,2013-08-27 14:06:00,
2013-08-27 10:16:00,84.0,71.3,0.00,NNE,22,0.9,2.2,59,0.00,,,-99.99,Homeseer,2013-08-27 14:16:00,
2013-08-27 10:26:00,84.7,71.6,0.00,North,0,0.9,3.1,58,0.00,,,-99.99,Homeseer,2013-08-27 14:26:00,
2013-08-27 10:36:00,85.1,72.3,0.00,ENE,67,2.2,5.4,59,0.00,,,-99.99,Homeseer,2013-08-27 14:36:00,
2013-08-27 10:46:00,83.8,70.8,0.00,East,90,3.1,3.1,58,0.00,,,-99.99,Homeseer,2013-08-27 14:46:00,
2013-08-27 10:56:00,84.2,68.2,0.00,East,90,2.0,2.5,51,0.00,,,-99.99,Homeseer,2013-08-27 14:56:00,
2013-08-27 11:06:00,84.0,66.6,0.00,ESE,112,1.6,0.0,48,0.00,,,-99.99,Homeseer,2013-08-27 15:06:00,
2013-08-27 11:16:00,85.3,68.3,0.00,SSE,157,3.6,3.6,49,0.00,,,-99.99,Homeseer,2013-08-27 15:16:00,
2013-08-27 11:26:00,84.9,65.0,0.00,ENE,67,2.0,2.9,43,0.00,,,-99.99,Homeseer,2013-08-27 15:26:00,
2013-08-27 11:36:00,85.1,63.0,0.00,East,90,1.6,0.0,39,0.00,,,-99.99,Homeseer,2013-08-27 15:36:00,
2013-08-27 11:46:00,84.7,62.1,0.00,ENE,67,1.1,3.1,38,0.00,,,-99.99,Homeseer,2013-08-27 15:46:00,
2013-08-27 11:56:00,85.5,63.4,0.00,ESE,112,2.2,2.2,39,0.00,,,-99.99,Homeseer,2013-08-27 15:56:00,
2013-08-27 12:06:00,85.6,63.4,0.00,ESE,112,0.0,2.2,39,0.00,,,-99.99,Homeseer,2013-08-27 16:06:00,
2013-08-27 12:16:00,85.8,63.1,0.00,SSE,157,2.7,0.0,38,0.00,,,-99.99,Homeseer,2013-08-27 16:16:00,
2013-08-27 12:26:00,85.6,61.7,0.00,ESE,112,2.0,2.0,36,0.00,,,-99.99,Homeseer,2013-08-27 16:26:00,
2013-08-27 12:36:00,87.1,63.6,0.00,South,180,1.3,5.4,37,0.00,,,-99.99,Homeseer,2013-08-27 16:36:00,
2013-08-27 12:46:00,87.1,60.4,0.00,SE,135,4.3,5.6,32,0.00,,,-99.99,Homeseer,2013-08-27 16:46:00,
2013-08-27 12:56:00,87.1,59.1,0.00,SE,135,2.9,3.1,30,0.00,,,-99.99,Homeseer,2013-08-27 16:56:00,
2013-08-27 13:06:00,86.9,61.6,0.00,East,90,2.5,4.3,34,0.00,,,-99.99,Homeseer,2013-08-27 17:06:00,
2013-08-27 13:16:00,86.5,60.6,0.00,ESE,112,3.1,3.8,33,0.00,,,-99.99,Homeseer,2013-08-27 17:16:00,
2013-08-27 13:26:00,87.1,61.1,0.00,ESE,112,4.0,4.0,33,0.00,,,-99.99,Homeseer,2013-08-27 17:26:00,
2013-08-27 13:36:00,87.3,59.9,0.00,South,180,2.0,2.7,31,0.00,,,-99.99,Homeseer,2013-08-27 17:36:00,
2013-08-27 13:46:00,86.2,61.0,0.00,ESE,112,4.3,4.3,34,0.00,,,-99.99,Homeseer,2013-08-27 17:46:00,
2013-08-27 13:56:00,84.0,67.6,0.00,ESE,112,2.2,2.2,50,0.00,,,-99.99,Homeseer,2013-08-27 17:56:00,
2013-08-27 14:06:00,83.1,68.1,0.00,SSE,157,4.5,8.1,53,0.00,,,-99.99,Homeseer,2013-08-27 18:06:00,
2013-08-27 14:16:00,82.8,69.8,0.00,SE,135,3.1,3.1,58,0.00,,,-99.99,Homeseer,2013-08-27 18:16:00,
2013-08-27 14:26:00,82.8,70.2,0.00,ESE,112,1.6,2.7,59,0.00,,,-99.99,Homeseer,2013-08-27 18:26:00,
2013-08-27 14:36:00,82.8,69.4,0.00,ESE,112,2.7,2.7,57,0.00,,,-99.99,Homeseer,2013-08-27 18:36:00,
2013-08-27 14:46:00,83.3,69.5,0.00,ESE,112,3.8,3.8,56,0.00,,,-99.99,Homeseer,2013-08-27 18:46:00,
2013-08-27 14:56:00,82.9,68.3,0.00,South,180,2.2,2.7,54,0.00,,,-99.99,Homeseer,2013-08-27 18:56:00,
2013-08-27 15:06:00,83.7,68.2,0.00,SE,135,0.9,0.0,52,0.00,,,-99.99,Homeseer,2013-08-27 19:06:00,
2013-08-27 15:16:00,83.5,66.7,0.00,SSE,157,1.3,2.5,49,0.00,,,-99.99,Homeseer,2013-08-27 19:16:00,
2013-08-27 15:26:00,83.5,65.2,0.00,ESE,112,2.0,2.7,46,0.00,,,-99.99,Homeseer,2013-08-27 19:26:00,
2013-08-27 15:36:00,84.0,66.6,0.00,South,180,2.0,0.0,48,0.00,,,-99.99,Homeseer,2013-08-27 19:36:00,
2013-08-27 15:46:00,83.8,66.9,0.00,WSW,247,1.1,0.0,49,0.00,,,-99.99,Homeseer,2013-08-27 19:46:00,
2013-08-27 15:56:00,84.0,66.6,0.00,South,180,0.0,0.0,48,0.00,,,-99.99,Homeseer,2013-08-27 19:56:00,
2013-08-27 16:06:00,83.8,66.5,0.00,South,180,0.0,2.9,48,0.00,,,-99.99,Homeseer,2013-08-27 20:06:00,
2013-08-27 16:16:00,84.0,66.6,0.00,North,0,0.0,0.0,48,0.00,,,-99.99,Homeseer,2013-08-27 20:16:00,
2013-08-27 16:26:00,84.2,66.3,0.00,South,180,1.6,0.0,47,0.00,,,-99.99,Homeseer,2013-08-27 20:26:00,
2013-08-27 16:36:00,83.5,65.2,0.00,East,90,0.0,0.0,46,0.00,,,-99.99,Homeseer,2013-08-27 20:36:00,
2013-08-27 16:46:00,83.7,66.4,0.00,North,0,0.9,0.0,48,0.00,,,-99.99,Homeseer,2013-08-27 20:46:00,
2013-08-27 16:56:00,83.8,66.0,0.00,SW,225,0.0,0.0,47,0.00,,,-99.99,Homeseer,2013-08-27 20:56:00,
2013-08-27 17:06:00,82.9,65.2,0.00,WSW,247,0.0,0.0,47,0.00,,,-99.99,Homeseer,2013-08-27 21:06:00,
2013-08-27 17:16:00,82.2,65.0,0.00,North,0,0.0,0.0,48,0.00,,,-99.99,Homeseer,2013-08-27 21:16:00,
2013-08-27 17:26:00,82.2,65.0,0.00,ESE,112,0.0,0.0,48,0.00,,,-99.99,Homeseer,2013-08-27 21:26:00,
2013-08-27 17:36:00,82.2,65.0,0.00,SE,135,0.0,0.0,48,0.00,,,-99.99,Homeseer,2013-08-27 21:36:00,
2013-08-27 17:56:00,82.6,65.4,0.00,South,180,0.0,0.0,48,0.00,,,-99.99,Homeseer,2013-08-27 21:56:00,
2013-08-27 18:06:00,82.6,64.9,0.00,South,180,0.0,0.0,47,0.00,,,-99.99,Homeseer,2013-08-27 22:06:00,
2013-08-27 18:16:00,82.6,64.9,0.00,SSE,157,0.0,0.0,47,0.00,,,-99.99,Homeseer,2013-08-27 22:16:00,
2013-08-27 18:26:00,82.2,64.1,0.00,ESE,112,0.0,0.0,46,0.00,,,-99.99,Homeseer,2013-08-27 22:26:00,
2013-08-27 18:36:00,82.4,64.7,0.00,ESE,112,0.0,0.0,47,0.00,,,-99.99,Homeseer,2013-08-27 22:36:00,
2013-08-27 18:46:00,82.2,63.6,0.00,ESE,112,1.6,2.0,45,0.00,,,-99.99,Homeseer,2013-08-27 22:46:00,
2013-08-27 18:56:00,82.6,63.5,0.00,ESE,112,0.0,1.3,44,0.00,,,-99.99,Homeseer,2013-08-27 22:56:00,
2013-08-27 19:06:00,82.0,61.9,0.00,ESE,112,2.0,2.5,42,0.00,,,-99.99,Homeseer,2013-08-27 23:06:00,
2013-08-27 19:16:00,82.0,62.4,0.00,East,90,0.0,0.0,43,0.00,,,-99.99,Homeseer,2013-08-27 23:16:00,
2013-08-27 19:26:00,81.9,62.3,0.00,East,90,0.0,0.0,43,0.00,,,-99.99,Homeseer,2013-08-27 23:26:00,
2013-08-27 19:36:00,81.7,62.2,0.00,East,90,0.0,2.0,43,0.00,,,-99.99,Homeseer,2013-08-27 23:36:00,
2013-08-27 19:46:00,81.5,62.5,0.00,East,90,0.9,0.0,44,0.00,,,-99.99,Homeseer,2013-08-27 23:46:00,
2013-08-27 19:56:00,81.3,63.3,0.00,East,90,0.0,0.0,46,0.00,,,-99.99,Homeseer,2013-08-27 23:56:00,
2013-08-27 20:06:00,81.3,63.3,0.00,ESE,112,2.0,3.1,46,0.00,,,-99.99,Homeseer,2013-08-28 00:06:00,
2013-08-27 20:16:00,81.3,62.8,0.00,ESE,112,0.0,4.0,45,0.00,,,-99.99,Homeseer,2013-08-28 00:16:00,
2013-08-27 20:26:00,81.1,63.1,0.00,ESE,112,3.4,3.4,46,0.00,,,-99.99,Homeseer,2013-08-28 00:26:00,
2013-08-27 20:36:00,81.1,63.6,0.00,East,90,0.0,0.0,47,0.00,,,-99.99,Homeseer,2013-08-28 00:36:00,
2013-08-27 20:46:00,81.1,63.6,0.00,NNE,22,0.9,3.1,47,0.00,,,-99.99,Homeseer,2013-08-28 00:46:00,
2013-08-27 20:56:00,81.1,64.0,0.00,ENE,67,0.9,0.0,48,0.00,,,-99.99,Homeseer,2013-08-28 00:56:00,
2013-08-27 21:06:00,81.0,63.9,0.00,North,0,0.0,0.0,48,0.00,,,-99.99,Homeseer,2013-08-28 01:06:00,
2013-08-27 21:16:00,81.0,63.0,0.00,ENE,67,1.1,2.2,46,0.00,,,-99.99,Homeseer,2013-08-28 01:16:00,
2013-08-27 21:26:00,80.8,63.3,0.00,North,0,0.0,0.0,47,0.00,,,-99.99,Homeseer,2013-08-28 01:26:00,
2013-08-27 21:36:00,80.8,63.3,0.00,North,0,0.0,0.0,47,0.00,,,-99.99,Homeseer,2013-08-28 01:36:00,
2013-08-27 21:46:00,80.8,63.8,0.00,NW,315,0.0,0.0,48,0.00,,,-99.99,Homeseer,2013-08-28 01:46:00,
2013-08-27 21:56:00,80.6,68.2,0.00,East,90,0.9,0.0,59,0.00,,,-99.99,Homeseer,2013-08-28 01:56:00,
2013-08-27 22:06:00,80.4,70.2,0.00,ENE,67,0.0,0.0,65,0.00,,,-99.99,Homeseer,2013-08-28 02:06:00,
2013-08-27 22:16:00,80.4,69.9,0.00,NNE,22,0.0,0.0,64,0.00,,,-99.99,Homeseer,2013-08-28 02:16:00,
2013-08-27 22:26:00,80.4,69.5,0.00,NNE,22,0.0,0.0,63,0.00,,,-99.99,Homeseer,2013-08-28 02:26:00,
2013-08-27 22:36:00,80.4,68.8,0.00,ESE,112,0.0,0.0,61,0.00,,,-99.99,Homeseer,2013-08-28 02:36:00,
2013-08-27 22:46:00,80.4,68.4,0.00,ESE,112,0.0,0.0,60,0.00,,,-99.99,Homeseer,2013-08-28 02:46:00,
2013-08-27 22:56:00,80.4,69.9,0.00,SE,135,0.9,0.0,64,0.00,,,-99.99,Homeseer,2013-08-28 02:56:00,
2013-08-27 23:06:00,80.4,69.5,0.00,ESE,112,0.0,0.0,63,0.00,,,-99.99,Homeseer,2013-08-28 03:06:00,
2013-08-27 23:16:00,80.4,68.4,0.00,ENE,67,0.0,0.0,60,0.00,,,-99.99,Homeseer,2013-08-28 03:16:00,
2013-08-27 23:26:00,80.4,68.8,0.00,ENE,67,1.1,0.0,61,0.00,,,-99.99,Homeseer,2013-08-28 03:26:00,
2013-08-27 23:36:00,80.6,68.6,0.00,SE,135,0.0,0.0,60,0.00,,,-99.99,Homeseer,2013-08-28 03:36:00,
2013-08-27 23:46:00,80.6,68.2,0.00,ESE,112,2.7,3.1,59,0.00,,,-99.99,Homeseer,2013-08-28 03:46:00,
2013-08-27 23:56:00,80.6,68.6,0.00,South,180,1.3,0.0,60,0.00,,,-99.99,Homeseer,2013-08-28 03:56:00,